[[{"header":{"parameterUnit":"m.s-1","parameterCategory":1,"la1":30.2991,"la2":30.254,"lo1":-89.0895,"lo2":-89.0444,"dy":0.0017,"dx":0.0017,"nx":28,"ny":28,"refTime":"2025-05-21T03:00:00:Z","depth":0,"parameterNumber":2,"parameterNumberName":"U-component_of_WINDS"},"data":[0,0,0,0,0,0,0,0,0,0,0,0,0,0,0,0,0,0,0,0,0,0,0,0,0,0,0,0,0,0,0,0,0,0,0,0,0,0,0,0,0,0,0,0,0,0,0,0,0,0,0,0,0,0,0,0,0,0,1.8961,1.8962,0,1.907,1.9072,1.9073,1.9068,1.9067,1.9065,1.9064,1.9177,1.9181,1.9185,0,0,0,0,0,0,0,0,0,0,0,0,0,1.8747,1.8751,1.8961,1.8962,1.8963,1.907,1.9072,1.9073,1.9069,1.9067,1.9065,1.9063,1.9175,1.918,1.9186,0,0,0,0,0,0,0,0,0,0,0,0,0,1.8847,1.8752,1.896,1.8974,1.8976,1.907,1.9072,1.9074,1.9069,1.9067,1.9064,1.9062,1.9173,1.918,1.9186,1.9274,0,0,1.9207,1.921,0,0,0,0,0,0,0,0,1.8841,1.8854,1.8971,1.8973,1.8976,1.9053,1.9038,1.9141,1.907,1.9034,1.9064,1.9061,1.9138,1.9147,1.9173,1.9279,1.9284,1.9207,1.9211,1.9214,1.9216,0,0,0,0,0,0,0,1.8834,1.885,1.9004,1.8972,1.8976,1.8975,1.8986,1.9057,1.9097,1.9037,1.9037,1.905,1.9139,1.9166,1.9175,1.9286,1.9207,1.9213,1.9217,1.922,1.9468,1.9471,0,0,0,0,0,0,1.8824,1.8844,1.9001,1.9007,1.8901,1.898,1.8993,1.9031,1.9097,1.9104,1.9052,1.9049,1.9156,1.9167,1.9179,1.9285,1.9214,1.922,1.9224,1.9466,1.9469,1.9472,0,0,0,0,0,0,1.882,1.8838,1.8996,1.8926,1.8946,1.8986,1.9029,1.9034,1.9062,1.9108,1.9115,1.9073,1.9155,1.917,1.925,1.9289,1.9223,1.923,1.9463,1.9467,1.947,1.9497,0,0,0,0,0,0,1.8814,1.8837,1.887,1.8926,1.895,1.9065,1.9031,1.9038,1.9073,1.9071,1.9129,1.9137,1.9154,1.924,1.9257,1.9297,1.9235,1.9459,1.9465,1.9469,1.9493,1.9501,1.9509,0,0,0,0,0,1.8806,1.8874,1.8872,1.8891,1.8992,1.9067,1.9081,1.9099,1.9077,1.911,1.914,1.9135,1.9282,1.9248,1.9267,1.9309,1.9457,1.9463,1.9469,1.9489,1.95,1.9508,0,0,0,0,0,0,1.8821,1.8881,1.888,1.8968,1.9013,1.9066,1.911,1.911,1.9162,1.9157,1.9178,1.9191,1.9271,1.9299,1.926,1.9397,1.9367,1.9377,1.9376,1.9386,1.9394,1.9385,1.924,0,0,0,0,0,1.8834,1.889,1.894,1.9013,1.9035,1.9069,1.9102,1.9113,1.916,1.9178,1.9214,1.926,1.9316,1.9353,1.9408,1.9497,1.9509,1.9536,1.9544,1.955,1.9558,1.9606,1.9618,1.9491,1.9491,1.9491,0,0,1.8862,1.8902,1.8936,1.9017,1.9052,1.911,1.9085,1.9146,1.9189,1.9188,1.9265,1.9293,1.9346,1.9431,1.947,1.9456,1.9596,1.9557,1.9562,1.9566,1.9613,1.9625,1.9636,1.9495,1.9494,1.9494,0,0,1.8943,1.8979,1.9043,1.908,1.9134,1.9156,1.9172,1.9226,1.9244,1.9322,1.9323,1.9374,1.9471,1.9508,1.954,1.9635,1.9631,1.9652,1.9693,1.9739,1.9749,1.9758,1.9791,1.9802,1.966,1.966,1.966,0,1.8971,1.9057,1.9076,1.9138,1.9173,1.9175,1.924,1.9274,1.9344,1.9368,1.9351,1.9473,1.9509,1.9602,1.9625,1.9651,1.9669,1.9645,1.9746,1.9756,1.9764,1.9795,1.9807,1.9662,1.9662,1.9662,1.9662,0,1.9088,1.9148,1.9193,1.926,1.93,1.9363,1.9392,1.943,1.9437,1.9461,1.954,1.9584,1.9646,1.967,1.9678,1.9764,1.9754,1.9742,1.9711,1.9778,1.9807,1.9819,1.9665,1.9664,1.9664,1.9663,0,0,1.9179,1.9256,1.9272,1.9302,1.9363,1.9409,1.9472,1.9534,1.9566,1.9614,1.9667,1.975,1.9739,1.9775,1.9787,1.9829,1.9899,1.9812,1.9813,1.9825,1.9995,2.0002,2.0016,1.9898,1.9901,1.9903,1.999,0,1.9264,1.9376,1.9395,1.9492,1.9547,1.9551,1.9606,1.9649,1.9673,1.9723,1.975,1.9807,1.9789,1.9811,1.9852,1.9882,1.9933,1.9876,1.9947,1.9949,1.9931,2.0032,2.004,2.012,2.0002,2.0004,2.0006,0,1.9378,1.9429,1.9531,1.9584,1.9608,1.9657,1.9714,1.9763,1.9812,1.9826,1.9866,1.9874,1.9939,1.9908,1.9998,1.9958,1.9989,2.0008,2.0011,2.0017,1.998,2.0038,2.0147,2.0158,2.0024,2.0023,2.0022,0,1.9431,1.9526,1.9599,1.9625,1.9689,1.9723,1.9751,1.9798,1.9834,1.9885,1.9908,1.9966,1.9997,2.0042,2.0064,2.0039,2.0152,2.0123,2.0166,2.0165,2.0187,2.0185,2.03,2.021,2.021,2.021,2.021,0,1.9523,1.9585,1.9624,1.9669,1.9739,1.9761,1.983,1.9857,1.9899,1.9949,1.9956,2.0003,2.0032,2.0083,2.0102,2.0172,2.0187,2.02,2.0204,2.0198,2.0196,2.0217,2.0211,2.0213,2.0213,2.0212,2.0211,0,1.9594,1.9623,1.9702,1.9757,1.9772,1.9821,1.9867,1.9911,1.9935,1.9998,2.0015,2.0053,2.0113,2.0141,2.0216,2.0229,2.0309,2.031,2.0292,2.0293,2.0334,2.0329,2.0464,2.0482,2.0382,2.0383,2.0384,0,1.9649,1.9697,1.9757,1.9791,1.982,1.9875,1.9911,1.9935,1.9973,2.0032,2.0068,2.0129,2.0179,2.0276,2.031,2.0367,2.0369,2.0412,2.0377,2.037,2.0367,2.0363,2.0367,2.0418,2.0419,2.042,2.042,0,1.9744,1.9756,1.9808,1.9865,1.9908,1.9954,2.0,2.0027,2.0059,2.01,2.0162,2.0201,2.0277,2.0337,2.0397,2.0426,2.0428,2.0431,2.0444,2.0438,2.0424,2.043,2.0307,2.0428,2.0427,2.0426,2.0426,2.0426,1.9808,1.985,1.9898,1.9956,1.9993,2.0035,2.0078,2.0108,2.016,2.0224,2.0235,2.0301,2.0349,2.0429,2.0461,2.0512,2.0502,2.052,2.0525,2.0529,2.053,2.0418,2.0523,2.0523,2.0523,2.0523,2.0523,0,1.9902,1.9933,1.9986,2.0049,2.0094,2.0093,2.0143,2.0181,2.0238,2.0283,2.0331,2.0402,2.0461,2.05,2.0559,2.0593,2.0595,2.0607,2.0604,2.061,2.0537,2.0519,2.0604,2.0604,2.0604,2.0604,2.0604,2.0604,1.9955,2.0026,2.0044,2.0134,2.0165,2.0229,2.0257,2.0296,2.0332,2.041,2.0459,2.0484,2.0527,2.0589,2.0642,2.0652,2.0673,2.0685,2.0695,2.0624,2.0616,2.0608,2.0591,2.069,2.069,2.0764,2.0764,2.0765]},{"header":{"parameterUnit":"m.s-1","parameterCategory":1,"la1":30.2991,"la2":30.254,"lo1":-89.0895,"lo2":-89.0444,"dy":0.0017,"dx":0.0017,"nx":28,"ny":28,"refTime":"2025-05-21T03:00:00:Z","depth":0,"parameterNumber":3,"parameterNumberName":"V-component_of_WINDS"},"data":[0,0,0,0,0,0,0,0,0,0,0,0,0,0,0,0,0,0,0,0,0,0,0,0,0,0,0,0,0,0,0,0,0,0,0,0,0,0,0,0,0,0,0,0,0,0,0,0,0,0,0,0,0,0,0,0,0,0,3.3742,3.3742,0,3.3752,3.3752,3.3753,3.3683,3.3681,3.3679,3.3677,3.3685,3.3687,3.3689,0,0,0,0,0,0,0,0,0,0,0,0,0,3.3658,3.366,3.3742,3.3742,3.3742,3.3752,3.3752,3.3753,3.3683,3.3681,3.3678,3.3676,3.3685,3.3687,3.369,0,0,0,0,0,0,0,0,0,0,0,0,0,3.3684,3.3661,3.3742,3.3709,3.3706,3.3752,3.3752,3.3753,3.3684,3.3681,3.3678,3.3675,3.3684,3.3687,3.369,3.3768,0,0,3.3699,3.3701,0,0,0,0,0,0,0,0,3.3683,3.3687,3.3713,3.3711,3.3708,3.3713,3.3726,3.3758,3.3684,3.3692,3.3677,3.3673,3.3697,3.3699,3.3707,3.3768,3.3769,3.37,3.3701,3.3703,3.3704,0,0,0,0,0,0,0,3.3681,3.3686,3.3746,3.3714,3.3711,3.3692,3.3693,3.3732,3.3711,3.3691,3.3686,3.3688,3.3695,3.3704,3.3707,3.3769,3.3699,3.3702,3.3704,3.3705,3.3893,3.3896,0,0,0,0,0,0,3.3684,3.3685,3.3745,3.3746,3.3688,3.3696,3.3697,3.3714,3.371,3.3707,3.3691,3.3685,3.37,3.3703,3.3707,3.3796,3.3703,3.3706,3.3707,3.3889,3.3893,3.3897,0,0,0,0,0,0,3.3683,3.369,3.3745,3.3714,3.372,3.3701,3.3721,3.3716,3.3726,3.371,3.3706,3.3705,3.3698,3.3702,3.3753,3.3796,3.3707,3.371,3.3886,3.3891,3.3895,3.3977,0,0,0,0,0,0,3.3681,3.369,3.372,3.3716,3.3722,3.3792,3.3724,3.3719,3.3731,3.3724,3.3722,3.3718,3.3696,3.3749,3.3756,3.3798,3.3712,3.3882,3.3888,3.3893,3.397,3.3984,3.3996,0,0,0,0,0,3.3678,3.3743,3.3722,3.373,3.376,3.3795,3.3798,3.3772,3.3735,3.3765,3.3754,3.3719,3.379,3.3755,3.3762,3.3806,3.3879,3.3886,3.3893,3.3965,3.3981,3.3995,0,0,0,0,0,0,3.3752,3.3742,3.3719,3.3784,3.3791,3.3783,3.3819,3.3791,3.3807,3.38,3.3766,3.3766,3.3822,3.3819,3.3779,3.388,3.3828,3.3837,3.388,3.3895,3.3908,3.3907,3.3715,0,0,0,0,0,3.3777,3.3807,3.3796,3.3855,3.3859,3.3839,3.3854,3.3833,3.3838,3.384,3.3834,3.384,3.3863,3.3879,3.39,3.397,3.3968,3.4004,3.4017,3.4027,3.4035,3.407,3.4085,3.392,3.392,3.392,0,0,3.3826,3.3824,3.3846,3.387,3.3872,3.3903,3.3842,3.3878,3.39,3.3845,3.3892,3.3888,3.3892,3.3953,3.3979,3.3952,3.408,3.4036,3.4044,3.4046,3.4079,3.4094,3.4108,3.3925,3.3924,3.3923,0,0,3.3933,3.3936,3.3984,3.3988,3.3993,3.3979,3.3991,3.3988,3.3983,3.403,3.3989,3.4015,3.4057,3.4061,3.4068,3.4176,3.4143,3.4184,3.4249,3.4284,3.4297,3.4308,3.4345,3.4359,3.4192,3.4192,3.4192,0,3.3994,3.404,3.4012,3.4051,3.4062,3.4015,3.4063,3.4068,3.408,3.4088,3.4058,3.4109,3.4108,3.4168,3.4194,3.4203,3.4214,3.4183,3.4298,3.4309,3.4319,3.4354,3.4368,3.4197,3.4196,3.4196,3.4195,0,3.4114,3.4147,3.4185,3.4198,3.4214,3.4257,3.4234,3.4253,3.4231,3.422,3.4268,3.4266,3.4285,3.4298,3.4277,3.4355,3.4338,3.4304,3.425,3.434,3.4372,3.4385,3.4204,3.4202,3.4201,3.42,0,0,3.4267,3.4264,3.4279,3.4283,3.4285,3.4309,3.435,3.4369,3.4385,3.4395,3.4427,3.4464,3.4432,3.4441,3.4419,3.445,3.4534,3.4412,3.4411,3.4433,3.4618,3.4643,3.4659,3.4513,3.4515,3.4517,3.4617,0,3.437,3.444,3.4415,3.4486,3.4515,3.447,3.4505,3.451,3.4501,3.4523,3.4512,3.4538,3.4495,3.45,3.4528,3.4518,3.457,3.4511,3.4541,3.4542,3.454,3.4676,3.4702,3.4796,3.463,3.4632,3.4633,0,3.4499,3.4514,3.4588,3.4584,3.4595,3.4627,3.4642,3.4665,3.4669,3.466,3.467,3.4642,3.468,3.4628,3.4679,3.4639,3.465,3.4647,3.465,3.465,3.4592,3.4678,3.4826,3.484,3.4653,3.4651,3.465,0,3.4601,3.464,3.4688,3.4694,3.4691,3.4715,3.4715,3.4716,3.4729,3.4742,3.4749,3.4767,3.4776,3.479,3.4767,3.4732,3.4822,3.4768,3.4814,3.4815,3.4834,3.4832,3.4984,3.4844,3.4843,3.4843,3.4843,0,3.4717,3.4763,3.4734,3.4764,3.4814,3.4786,3.4836,3.483,3.4832,3.4859,3.4822,3.4848,3.4817,3.484,3.4822,3.4867,3.4872,3.4864,3.4859,3.4867,3.4868,3.4873,3.4865,3.4847,3.4846,3.4845,3.4845,0,3.4839,3.4822,3.4871,3.4865,3.4864,3.4901,3.4895,3.4922,3.491,3.4945,3.4951,3.4933,3.4958,3.4937,3.4961,3.4949,3.5008,3.4994,3.5007,3.5002,3.5049,3.5045,3.5208,3.5227,3.5076,3.5078,3.5079,0,3.4914,3.4948,3.4946,3.4961,3.4964,3.499,3.5003,3.4976,3.4991,3.4998,3.5023,3.5045,3.5061,3.5103,3.5091,3.5109,3.5094,3.515,3.5097,3.5104,3.5093,3.5091,3.5094,3.5161,3.5163,3.5164,3.5165,0,3.5047,3.5037,3.5057,3.5075,3.5091,3.5104,3.5113,3.5128,3.5101,3.5119,3.5144,3.5157,3.5182,3.5204,3.5218,3.5216,3.5186,3.5182,3.5194,3.5202,3.5207,3.5203,3.5035,3.5178,3.5177,3.5176,3.5175,3.5175,3.5146,3.5175,3.5177,3.5201,3.5205,3.5215,3.5239,3.5231,3.5252,3.527,3.5253,3.5283,3.5285,3.5301,3.5304,3.5327,3.5303,3.532,3.5324,3.5328,3.5335,3.5205,3.5329,3.5329,3.5329,3.5328,3.5328,0,3.5277,3.5276,3.5298,3.5313,3.5331,3.5302,3.5311,3.5328,3.5355,3.536,3.5377,3.5406,3.5427,3.5417,3.5435,3.5455,3.5441,3.5461,3.5458,3.5458,3.5355,3.5343,3.5471,3.5471,3.5471,3.5471,3.5471,3.5471,3.5346,3.5392,3.5382,3.5429,3.5428,3.5458,3.5465,3.5473,3.5477,3.5511,3.5528,3.5522,3.5521,3.5538,3.5556,3.5553,3.556,3.5584,3.5576,3.5479,3.5465,3.5452,3.544,3.5587,3.5587,3.5676,3.5677,3.5678]}]]